Location: Ipswich
(52.0579°N, 1.1528°E)
Time: 09:26:48
(UTC+01:00)

ISS - Pass Details

Date: 11 May 2026
Orbit: 414 x 424 km, 51.6° (Epoch: 8 May)

Event Time Altitude Azimuth Distance (km) Brightness Sun altitude
Rises 22:16:50 0° 249° (WSW) 2,348 0.3 -12.2°
Reaches altitude 10° 22:18:55 10° 247° (WSW) 1,487 -0.8 -12.4°
Maximum altitude 22:22:14 64° 165° (SSE) 463 -3.8 -12.7°
Drops below altitude 10° 22:25:33 10° 83° (E) 1,494 -1.2 -13.0°
Enters shadow 22:26:26 - 82° (E) 1,857 -0.7 -13.1°
